Location: STAR School
(35.3054°N, 111.2976°W)
Time: 22:14:20
(UTC-07:00)

Vanguard 1 - Pass Details

Date: 23 October 2019
Orbit: 652 x 3831 km, 34.2° (Epoch: 11 November)

Event Time Altitude Azimuth Distance (km) Brightness Sun altitude
Rises 18:54:48 0° 254° (WSW) 3,555 14.6 -15.9°
Reaches altitude 10° 18:56:52 10° 253° (WSW) 2,824 13.7 -16.3°
Maximum altitude 19:03:43 79° 168° (SSE) 1,511 10.9 -17.7°
Enters shadow 19:11:28 25° 86° (E) 3,457 12.2 -19.3°
